DELTA 1 DEB, 21290

Orbit data source: Space-Track

DELTA 1 DEB, 21290 is space debris in SSO originally from a launch on Thu, 12 Jun 1975 UTC launched from the Air Force Western Test Range (AFWTR). Debris objects in space refer to the collection of defunct objects orbiting the Earth. Examples of debris include non-operational satellites, rocket bodies, and fragments generated from explosions, collisions, or faulty payload assembly.

Loading next visibility...
Identifier
21290, 1975-052AB
Orbit
SSO
Country
Flag of USUS
Related business
Manufacturer
Unknown
Mission
Spacecraft
Bus & Motor
Unknown
Mass
Unknown
Launch date (UTC)
1975-06-12 (50 years ago)
Launch vehicle
Unknown
Launch site
Air Force Western Test Range (AFWTR)
Object type
Payload
Rocket body
Debris
Shape & HBR
Unknown
Radar Cross Section
Small (<0.1 m²)

Expand to show TLE details & history
Last TLE update: 18 hours ago

TLE from 18 hours ago
0 DELTA 1 DEB
1 21290U 75052AB  25258.84367765  .00000061  00000-0  41388-3 0  9995
2 21290  99.5354 211.6802 0513741  16.8495  36.2878 12.43313726558740
Epoch: 2025-09-15T20:14Z
TLE epoch observation values (Epoch: 2025-09-15T20:14:53.748Z)
Latitude
55.7137°
Longitude
-101.27475°
Altitude
1,183.489 km
Speed
7.413 km/s
True Right ascension
13h 09m 58s
True Declination
55° 33' 45"
Sunlit
Object was in daylight at epoch
Visualization orbit readout
Latitude
Unknown
Longitude
Unknown
Altitude
Unknown
Speed
Unknown
Apparent Right ascension
Unknown
Apparent Declination
Unknown
Sunlit
N/A
Visualization observer readout
Local Sidereal Time
06:37:46
Azimuth
Unknown
Elevation
Unknown
Doppler factor
Unknown
Orbital elements
Apogee altitude
1,894.234 km
Perigee altitude
1,085.796 km
Semi-major axis
7,868.152 km
Eccentricity
0.05137
Inclination
99.5354°
RAAN
211.6802°
Arg. of periapsis
16.8495°
True anomaly
39.95922°
Mean anomaly
36.2878°
Eccentric anomaly
38.10423°
Mean motion
3.10981 °/min
Orbital period
115.76 mins
BSTAR
0.00041388
Loading maneuver chart data...
Computing Atmospheric mass density...
Loading historical data...
Loading historical data...
Loading historical data...
Loading historical data...
Loading historical data...
Loading historical data...
Loading historical data...

Documentation

Showing up to 5 results
|